Burlington, VT

9:15 PM EDT on July 27, 2017 (GMT -0400)
Burlington International

Weather History for KBTV - November, 2013

Change the Weather History Date:

Tuesday, November 5, 2013

  Actual Average Record
Temperature  
Mean Temperature 38 °F 42 °F  
Max Temperature 49 °F 50 °F 72 °F (1938)
Min Temperature 26 °F 34 °F 18 °F (1965)
Degree Days  
Heating Degree Days 27 23  
Month to date heating degree days 117 113  
Since 1 July heating degree days 736 854  
Cooling Degree Days 0 0  
Month to date cooling degree days 0 0  
Year to date cooling degree days 662 491  
Moisture  
Dew Point 24 °F    
Average Humidity 57    
Maximum Humidity 75    
Minimum Humidity 39    
Precipitation  
Precipitation 0.00 in 0.11 in 1.40 in (1969)
Month to date precipitation 0.29 0.57  
Year to date precipitation 40.31 31.88  
Snow  
Snow 0.00 in 0.10 in 5.00 in (1936)
Month to date snowfall 0.0 0.4  
Since 1 July snowfall T 0.7  
Since 1 September snowfall T 0.7  
Snow Depth 0.00 in    
Sea Level Pressure  
Sea Level Pressure 30.54 in    
Wind  
Wind Speed 12 mph (South)    
Max Wind Speed 25 mph    
Max Gust Speed 36 mph    
Visibility 10 miles    
Events      
T = Trace of Precipitation, MM = Missing Value Source: NWS Daily Summary

Daily Weather History Graph

Daily Weather History Graph

Search for Another Location

Airport or City:

Trip Planner

Search our weather history database for the weather conditions in past years. The results will help you decide how hot, cold, wet, or windy it might be!

Date:

Astronomy

Nov. 05, 2013 Rise Set
Actual Time 6:35 AM EST 4:36 PM EST
Civil Twilight 6:05 AM EST 5:06 PM EST
Nautical Twilight 5:30 AM EST 5:41 PM EST
Astronomical Twilight 4:56 AM EST 6:15 PM EST
Moon 8:51 AM EST (11/5) 6:31 PM EST (11/5)
Length of Visible Light 11h 01m
Length of Day
10h 00m
Waxing Crescent, 6% of the Moon is Illuminated
Nov 5
Waxing Crescent
Nov 10
First Quarter
Nov 17
Full
Nov 25
Last Quarter
Dec 2
New

Hourly Weather History & Observations

Time (EST) Temp. Windchill Dew Point Humidity Pressure Visibility Wind Dir Wind Speed Gust Speed Precip Events Conditions
12:54 AM 28.9 °F 25.2 °F 19.9 °F 69% 30.65 in 10.0 mi SSE 3.5 mph - N/A   Clear
1:54 AM 33.1 °F 27.7 °F 17.1 °F 52% 30.62 in 10.0 mi South 5.8 mph - N/A   Clear
2:54 AM 33.1 °F 25.5 °F 17.1 °F 52% 30.63 in 10.0 mi South 9.2 mph - N/A   Clear
3:54 AM 32.0 °F 28.7 °F 17.1 °F 54% 30.61 in 10.0 mi South 3.5 mph - N/A   Clear
4:54 AM 30.9 °F 24.3 °F 17.1 °F 57% 30.62 in 10.0 mi South 6.9 mph - N/A   Clear
5:54 AM 32.0 °F 24.2 °F 16.0 °F 52% 30.61 in 10.0 mi South 9.2 mph - N/A   Clear
6:54 AM 33.1 °F 24.4 °F 16.0 °F 50% 30.61 in 10.0 mi South 11.5 mph - N/A   Clear
7:54 AM 34.0 °F 26.0 °F 17.1 °F 50% 30.61 in 10.0 mi South 10.4 mph - N/A   Clear
8:54 AM 39.0 °F 29.9 °F 18.0 °F 43% 30.59 in 10.0 mi South 17.3 mph 24.2 mph N/A   Partly Cloudy
9:54 AM 42.1 °F 33.3 °F 19.0 °F 40% 30.58 in 10.0 mi South 19.6 mph 31.1 mph N/A   Partly Cloudy
10:54 AM 45.0 °F 36.4 °F 21.9 °F 40% 30.55 in 10.0 mi South 23.0 mph 31.1 mph N/A   Partly Cloudy
11:54 AM 46.9 °F - 26.1 °F 44% 30.53 in 10.0 mi South 21.9 mph 32.2 mph N/A   Scattered Clouds
12:54 PM 48.0 °F - 27.0 °F 44% 30.53 in 10.0 mi South 19.6 mph 26.5 mph N/A   Scattered Clouds
1:54 PM 48.9 °F - 28.0 °F 44% 30.51 in 10.0 mi South 16.1 mph 20.7 mph N/A   Partly Cloudy
2:54 PM 48.0 °F - 28.0 °F 46% 30.49 in 10.0 mi South 13.8 mph - N/A   Partly Cloudy
3:54 PM 48.0 °F - 28.0 °F 46% 30.48 in 10.0 mi South 10.4 mph 19.6 mph N/A   Partly Cloudy
4:54 PM 45.0 °F 40.1 °F 30.0 °F 56% 30.48 in 10.0 mi South 9.2 mph - N/A   Partly Cloudy
5:54 PM 46.9 °F - 30.0 °F 52% 30.48 in 10.0 mi South 12.7 mph 20.7 mph N/A   Mostly Cloudy
6:54 PM 46.0 °F 41.4 °F 30.0 °F 54% 30.47 in 10.0 mi SSE 9.2 mph - N/A   Mostly Cloudy
7:54 PM 46.0 °F 40.6 °F 30.9 °F 56% 30.46 in 10.0 mi South 11.5 mph - N/A   Mostly Cloudy
8:54 PM 46.9 °F - 30.9 °F 54% 30.45 in 10.0 mi South 10.4 mph 19.6 mph N/A   Mostly Cloudy
9:54 PM 48.0 °F - 32.0 °F 54% 30.44 in 10.0 mi South 9.2 mph - N/A   Overcast
10:54 PM 48.0 °F - 33.1 °F 56% 30.42 in 10.0 mi South 15.0 mph 21.9 mph N/A   Overcast
11:54 PM 48.0 °F - 33.1 °F 56% 30.40 in 10.0 mi South 9.2 mph 18.4 mph N/A   Mostly Cloudy